SQ2CET-13 Weather Reports


time (UTC)temp
C
wind
direction
speed
KPH
gust
KPH
rain 1hr
cm
rain 24hr
cm
rain mn
cm
humidity
%
barometer
mb
20260903235040 16 237 9.7 20.9 0.00 0.99 0.99 87 1009.9
20260903234104 16 229 11.3 30.6 0.00 0.99 0.99 87 1009.9
20260903233024 16 235 8.0 24.1 0.00 0.99 0.99 87 1010.0
20260903232048 16 234 12.9 24.1 0.00 0.99 0.99 87 1009.9
20260903231112 16 240 8.0 27.4 0.00 0.99 0.99 87 1010.1
20260903230032 16 222 9.7 25.7 0.00 0.99 0.99 87 1010.1
20260903225056 16 240 11.3 25.7 0.00 0.99 0.99 87 1010.2
20260903224121 16 237 9.7 25.7 0.00 0.99 0.99 87 1010.4
20260903223121 16 227 11.3 22.5 0.00 0.99 0.99 87 1010.3
20260903222104 16 234 9.7 19.3 0.00 0.99 0.99 87 1010.5
20260903221025 16 233 14.5 22.5 0.00 0.99 0.99 87 1010.6
20260903220049 16 240 11.3 25.7 0.00 0.99 0.99 87 1010.7
20260903215132 16 244 11.3 20.9 0.03 0.99 0.99 88 1010.9
20260903214033 16 234 8.0 24.1 0.03 0.99 0.99 88 1010.8
20260903213056 16 236 9.7 24.1 0.03 0.99 0.99 88 1010.8
20260903212122 16 238 9.7 16.1 0.03 0.99 0.99 88 1010.9
20260903211041 16 217 9.7 24.1 0.03 0.99 0.99 87 1011.0
20260903210106 16 235 9.7 30.6 0.03 0.99 0.99 87 1011.1
20260903205024 16 234 12.9 27.4 0.00 0.99 0.99 85 1011.2
20260903204049 16 236 12.9 25.7 0.00 0.99 0.99 85 1011.2
20260903203113 16 223 14.5 29.0 0.00 0.99 0.99 86 1011.2
20260903202032 16 228 12.9 27.4 0.03 0.99 0.99 86 1011.4
20260903201059 16 232 11.3 19.3 0.03 0.99 0.99 86 1011.4
20260903200121 15 228 11.3 30.6 0.03 0.99 0.99 86 1011.6
20260903195041 16 236 8.0 27.4 0.05 0.99 0.99 85 1011.5
20260903194104 15 227 14.5 27.4 0.05 0.99 0.99 86 1011.4
20260903193024 15 225 14.5 29.0 0.08 0.99 0.99 86 1011.5
20260903192048 15 221 19.3 30.6 0.13 0.94 0.94 85 1011.8
20260903191112 15 218 16.1 30.6 0.18 0.94 0.94 85 1011.6
20260903190032 15 221 9.7 29.0 0.25 0.94 0.94 86 1011.7
20260903185056 15 208 6.4 24.1 0.23 0.94 0.94 87 1011.7
20260903184120 15 220 12.9 22.5 0.23 0.94 0.94 88 1012.0
20260903183039 15 232 8.0 17.7 0.20 0.89 0.89 87 1012.2
20260903182056 15 214 9.7 17.7 0.13 0.84 0.84 86 1012.3
20260903181120 16 224 9.7 25.7 0.05 0.76 0.76 85 1012.3
20260903180041 16 215 11.3 25.7 0.00 0.71 0.71 83 1012.4
20260903175104 16 215 8.0 20.9 0.00 0.71 0.71 83 1012.5
20260903174024 16 217 9.7 24.1 0.00 0.71 0.71 84 1012.6
20260903173040 16 215 8.0 17.7 0.00 0.71 0.71 85 1012.7
20260903172115 16 225 6.4 19.3 0.00 0.71 0.71 86 1012.8
20260903171024 16 209 6.4 14.5 0.05 0.71 0.71 86 1012.9
20260903170108 16 213 4.8 14.5 0.18 0.71 0.71 87 1013.0
20260903165112 15 193 3.2 12.9 0.25 0.71 0.71 87 1013.0
20260903164052 15 172 3.2 11.3 0.28 0.71 0.71 87 1013.1
20260903163056 15 217 3.2 9.7 0.28 0.71 0.71 88 1013.3
20260903162120 15 217 4.8 8.0 0.25 0.71 0.71 88 1013.2
20260903161040 15 201 3.2 9.7 0.23 0.66 0.66 88 1013.5
20260903160125 15 219 3.2 16.1 0.13 0.53 0.53 87 1013.6
20260903155044 15 222 3.2 11.3 0.08 0.46 0.46 86 1013.9
20260903154048 15 216 4.8 11.3 0.13 0.43 0.43 86 1013.9
20260903153112 15 199 3.2 8.0 0.23 0.43 0.43 86 1014.0
20260903152031 15 217 4.8 12.9 0.28 0.43 0.43 86 1014.1
20260903151056 15 175 4.8 14.5 0.33 0.43 0.43 86 1014.3
20260903150016 15 206 6.4 16.1 0.36 0.41 0.41 86 1014.4
20260903145042 15 198 8.0 12.9 0.36 0.38 0.38 87 1014.6
20260903144056 15 220 3.2 11.3 0.30 0.30 0.30 86 1014.7
20260903143016 15 219 6.4 11.3 0.20 0.20 0.20 84 1014.8
20260903142041 15 223 8.0 17.7 0.15 0.15 0.15 83 1014.9
20260903141105 16 225 9.7 32.2 0.10 0.10 0.10 82 1015.1
20260903140024 16 224 14.5 29.0 0.05 0.05 0.05 78 1015.0
20260903135111 17 234 9.7 20.9 0.03 0.03 0.03 77 1015.0
20260903134114 17 230 8.0 20.9 0.00 0.00 0.00 75 1015.0
20260903133032 17 238 6.4 22.5 0.00 0.00 0.00 72 1015.2
20260903132048 18 239 11.3 24.1 0.00 0.00 0.00 67 1015.2
20260903131112 18 216 4.8 14.5 0.00 0.00 0.00 68 1015.2
20260903060039 15 230 9.7 19.3 0.00 0.61 0.00 75 1017.2
20260903055055 15 235 9.7 19.3 0.00 0.61 0.00 75 1017.1
20260903054120 15 235 8.0 19.3 0.00 0.61 0.00 76 1017.1
20260903053041 14 229 6.4 14.5 0.00 0.64 0.00 77 1017.2
20260903052104 14 230 3.2 14.5 0.00 0.64 0.00 77 1017.2
20260903051025 14 224 8.0 17.7 0.00 0.79 0.00 77 1017.3
20260903050052 14 224 6.4 12.9 0.00 0.94 0.00 77 1017.3
20260903045113 14 232 4.8 11.3 0.00 0.94 0.00 77 1017.2
20260903044033 14 210 4.8 12.9 0.00 0.94 0.00 77 1017.1
20260903043056 14 237 4.8 9.7 0.00 0.94 0.00 78 1017.3
20260903042120 14 228 3.2 9.7 0.00 0.94 0.00 78 1017.3
20260903041041 14 224 4.8 12.9 0.00 0.94 0.00 77 1017.4
20260903040125 14 231 4.8 16.1 0.00 0.94 0.00 76 1017.4
20260903035121 14 218 8.0 14.5 0.00 0.99 0.00 77 1017.4
20260903034040 14 228 3.2 20.9 0.00 1.07 0.00 76 1017.5
20260903033103 14 230 4.8 12.9 0.00 1.07 0.00 77 1017.4
20260903032120 14 232 4.8 9.7 0.00 1.07 0.00 77 1017.4
20260903031041 14 238 6.4 11.3 0.00 1.07 0.00 77 1017.5
20260903030104 14 225 6.4 14.5 0.00 1.07 0.00 77 1017.6
20260903025125 14 219 4.8 12.9 0.00 1.07 0.00 77 1017.6
20260903024040 14 228 6.4 11.3 0.00 1.07 0.00 77 1017.7
20260903023104 13 235 4.8 16.1 0.00 1.07 0.00 78 1017.6
20260903022036 13 224 4.8 11.3 0.00 1.07 0.00 78 1017.7
20260903021128 14 233 3.2 14.5 0.00 1.07 0.00 78 1017.7
20260903020112 14 228 6.4 16.1 0.00 1.07 0.00 78 1017.8
20260903015032 14 236 6.4 14.5 0.00 1.07 0.00 78 1017.9
20260903014137 14 220 9.7 16.1 0.00 1.07 0.00 78 1017.8
20260903013119 14 223 8.0 16.1 0.00 1.12 0.00 79 1017.9
20260903012040 14 229 8.0 19.3 0.00 1.12 0.00 79 1017.8
20260903011123 14 221 6.4 14.5 0.00 1.12 0.00 79 1017.8
20260903010043 15 219 6.4 14.5 0.00 1.12 0.00 79 1017.7
20260903005047 14 221 8.0 16.1 0.00 1.12 0.00 80 1017.7
20260903004103 14 238 8.0 12.9 0.00 1.12 0.00 81 1017.7
20260903003023 14 226 4.8 14.5 0.00 1.12 0.00 81 1017.7
20260903002047 14 232 6.4 14.5 0.00 1.12 0.00 82 1017.8
20260903001112 14 233 4.8 14.5 0.00 1.12 0.00 82 1017.9
20260903000034 14 237 6.4 16.1 0.00 1.12 0.00 82 1018.1